FW1970 Weather Reports


Display with metric or nautical units.
time (UTC)temp
F
wind
direction
speed
MPH
gust
MPH
rain 1hr
in
rain 24hr
in
rain mn
in
humidity
%
barometer
mb
20260503060118 36 325 1.0 3.0 0.00 0.00 0.00 67 1016.2
20260503054613 36 325 1.0 3.0 0.00 0.00 0.00 67 1016.3
20260503053055 36 325 0.0 3.0 0.00 0.00 0.00 67 1016.5
20260503051553 36 325 1.0 3.0 0.00 0.00 0.00 67 1016.6
20260503050053 36 327 1.0 3.0 0.00 0.00 0.00 67 1016.6
20260503044552 36 327 2.0 4.0 0.00 0.00 0.00 67 1016.6
20260503043050 37 333 2.0 4.0 0.00 0.00 0.00 66 1016.6
20260503041549 37 333 1.0 3.0 0.00 0.00 0.00 66 1016.7
20260503040045 37 333 0.0 3.0 0.00 0.00 0.00 66 1016.6
20260503034544 37 333 0.0 2.0 0.00 0.00 0.00 66 1016.7
20260503033044 37 333 1.0 3.0 0.00 0.00 0.00 66 1016.7
20260503031546 37 333 2.0 3.0 0.00 0.00 0.00 65 1016.5
20260503030047 38 333 2.0 4.0 0.00 0.00 0.00 64 1016.6
20260503024541 38 333 0.0 4.0 0.00 0.00 0.00 63 1016.8
20260503023040 38 334 1.0 3.0 0.00 0.00 0.00 63 1017.0
20260503021542 39 334 2.0 4.0 0.00 0.00 0.00 63 1017.0
20260503020039 39 332 0.0 4.0 0.00 0.00 0.00 63 1016.8
20260503014537 39 333 1.0 4.0 0.00 0.00 0.00 62 1016.8
20260503013037 39 334 1.0 3.0 0.00 0.00 0.00 62 1016.8
20260503011536 39 334 0.0 4.0 0.00 0.00 0.00 63 1016.7
20260503010037 39 336 1.0 4.0 0.00 0.00 0.00 63 1016.7
20260503004534 40 338 0.0 5.0 0.00 0.00 0.00 63 1016.5
20260503003036 40 346 0.0 3.0 0.00 0.00 0.00 63 1016.3
20260503001532 40 346 1.0 3.0 0.00 0.00 0.00 62 1016.3
20260503000033 40 346 1.0 4.0 0.00 0.00 0.00 62 1016.1
20260502234546 40 346 2.0 4.0 0.00 0.01 0.00 61 1016.1
20260502233029 40 345 2.0 5.0 0.00 0.01 0.00 60 1015.9
20260502231529 41 343 3.0 10.0 0.00 0.01 0.00 60 1015.8
20260502230029 41 5 4.0 11.0 0.00 0.01 0.00 59 1016.0
20260502224528 41 327 3.0 9.0 0.00 0.04 0.00 60 1016.0
20260502223028 41 355 3.0 11.0 0.00 0.04 0.00 60 1016.0
20260502221528 41 320 5.0 10.0 0.00 0.04 0.00 61 1015.9
20260502220026 41 306 4.0 13.0 0.00 0.04 0.00 61 1016.0
20260502214538 42 5 4.0 10.0 0.00 0.04 0.00 62 1016.0
20260502213025 42 347 4.0 12.0 0.00 0.04 0.00 62 1015.8
20260502211533 41 355 3.0 10.0 0.00 0.04 0.00 63 1015.7
20260502210026 41 321 2.0 9.0 0.00 0.04 0.00 64 1015.6
20260502204523 41 355 1.0 8.0 0.00 0.09 0.00 65 1015.6
20260502203022 41 360 5.0 11.0 0.00 0.09 0.00 64 1015.7
20260502201522 41 331 4.0 10.0 0.00 0.09 0.00 63 1015.6
20260502200021 41 350 4.0 10.0 0.00 0.09 0.00 65 1015.7
20260502194520 41 335 2.0 6.0 0.00 0.13 0.00 66 1015.8
20260502193020 41 308 6.0 13.0 0.00 0.13 0.00 65 1015.7
20260502191521 41 5 2.0 9.0 0.00 0.13 0.00 67 1016.0
20260502190019 41 346 1.0 9.0 0.00 0.13 0.00 65 1016.0
20260502184518 41 329 5.0 12.0 0.00 0.16 0.00 66 1016.0
20260502183018 42 5 5.0 10.0 0.00 0.16 0.00 66 1016.0
20260502181516 41 336 3.0 8.0 0.00 0.16 0.00 67 1016.0
20260502163013 40 343 6.0 13.0 0.00 0.17 0.00 70 1015.8
20260502161511 41 5 3.0 12.0 0.00 0.17 0.00 70 1015.7
20260502151509 43 347 4.0 9.0 0.00 0.17 0.00 67 1015.3
20260502123049 37 224 0.0 3.0 0.00 0.17 0.00 84 1015.7
20260502121551 37 224 0.0 3.0 0.00 0.17 0.00 84 1015.6
20260502114546 37 200 2.0 5.0 0.00 0.17 0.00 84 1015.8
20260502113043 38 223 1.0 4.0 0.00 0.17 0.00 84 1015.6
20260502111545 36 257 1.0 3.0 0.00 0.17 0.00 84 1015.7
20260502110037 35 275 0.0 1.0 0.00 0.17 0.00 84 1015.5
20260502104536 35 275 0.0 1.0 0.00 0.17 0.00 84 1015.4
20260502103038 36 275 0.0 0.0 0.00 0.17 0.00 84 1015.4
20260502101531 36 275 0.0 3.0 0.00 0.17 0.00 84 1015.8
20260502091527 35 288 0.0 2.0 0.00 0.17 0.00 83 1015.6
20260502071518 35 290 0.0 2.0 0.00 0.17 0.00 81 1015.3
20260502070023 35 290 0.0 1.0 0.00 0.17 0.00 80 1015.4
20260502064517 35 290 0.0 0.0 0.00 0.17 0.00 80 1015.5
20260502063025 35 290 0.0 1.0 0.00 0.17 0.00 79 1015.6
20260502061513 36 290 0.0 2.0 0.00 0.17 0.00 79 1015.6